Regional Weather Roundup
Issued by NWS State College, PA

Home | Current Version | Previous Version | Text Only | Print | Product List | Glossary Off
Versions: 1 2 3 4 5 6 7 8 9 10 11 12 13 14 15 16 17 18 19 20 21 22 23 24 25 26 27 28 29 30 31 32 33 34 35 36 37 38 39 40 41 42 43 44 45 46 47 48 49 50

000
ASUS41 KCTP 200810
RWRCTP

REGIONAL WEATHER ROUNDUP
NATIONAL WEATHER SERVICE STATE COLLEGE PA
300 AM EST TUE FEB 20 2018

Note: "fair" indicates few or no clouds below 12,000 feet with no
significant weather and/or obstructions to visibility.

* = STATION THAT DOES NOT REPORT PRECIPITATION /E.G. RAIN...SNOW...ETC/
    THUNDER OR FOG.

PAZ002>004-007>009-013>016-020>023-029>032-200900-
WESTERN PENNSYLVANIA

CITY           SKY/WX    TMP DP  RH WIND       PRES   REMARKS
ERIE           CLOUDY    64  54  69 S16       30.05R
MEADVILLE      CLOUDY    60  53  77 S12G17    30.09S
FRANKLIN*      FAIR      59  52  77 SW14      30.12S
NEW CASTLE     FAIR      60  54  80 S7        30.13
BEAVER COUNTY  NOT AVBL
BUTLER*        FAIR      60  52  74 S10       30.14S
PITTSBURGH INT MOCLDY    63  52  67 SW10      30.14S
PITTSBURGH     FAIR      60  49  66 S10       30.15F
INDIANA*       CLEAR     61  54  77 SW10      30.21S
LATROBE        FAIR      61  52  72 S10       30.18F
WASHINGTON CO* FAIR      63  52  67 S10       30.19S
$$

PAZ004>006-010>012-017>019-024>028-033>037-041-042-045-046-049>053-200900-
CENTRAL PENNSYLVANIA

CITY           SKY/WX    TMP DP  RH WIND       PRES   REMARKS
BRADFORD       FAIR      54  51  90 SW8       30.13F
DUBOIS         FAIR      57  49  74 SW10      30.15S
CLEARFIELD     FOG       35  35 100 NW3       30.18F VSB 1/4
JOHNSTOWN      FAIR      58  50  75 SW13      30.20S
ALTOONA        FAIR      36  36 100 CALM      30.22F FOG
STATE COLLEGE  FOG       35  35 100 CALM      30.22F VSB 1/4
WILLIAMSPORT   CLOUDY    42  42 100 E8        30.25F
SELINSGROVE    FOG       39  39 100 CALM      30.27F VSB 1/4
FT INDIANTOWN  FOG       40  40 100 CALM      30.29F VSB 1/4
CAPITAL CITY   FOG       44  43  96 CALM      30.29S VSB 1/2
HARRISBURG     FOG       43  41  93 CALM      30.28F VSB 3/4
YORK           CLOUDY    48  48 100 CALM      30.28F
$$

PAZ038>040-043-044-047-048-054-055-060>062-067>071-200900-
EASTERN PENNSYLVANIA

CITY           SKY/WX    TMP DP  RH WIND       PRES   REMARKS
SCRANTON       CLOUDY    42  41  96 CALM      30.24F FOG
MOUNT POCONO   MOCLDY    41  41 100 W7        30.23F
ALLENTOWN      FOG       39  36  89 CALM      30.30F VSB 1/4
QUAKERTOWN*    FOG       39  39 100 CALM      30.30F VSB 0
READING        FOG       38  38 100 CALM      30.29F VSB 1/4
LANCASTER      FOG       43  43 100 E3        30.30S VSB 1/4
COATESVILLE    FOG       46 N/A N/A SW6       30.31F VSB<1/4
POTTSTOWN      FOG       41  41 100 CALM      30.32S VSB 1/4
BLUE BELL      CLOUDY    46  46 100 SW5       30.32F
DOYLESTOWN     FOG       45  45 100 SW5       30.30F VSB 3/4
WILLOW GROVE   NOT AVBL
NORTH PHILA    FOG       51  50  96 SW9       30.33F VSB 1/4
PHILADELPHIA   FOG       47  47 100 SW5       30.33F VSB 1/4
$$



USA.gov is the U.S. government's official web portal to all federal, state and local government web resources and services.